TimeCST,TemperatureF,Dew PointF,Humidity,Sea Level PressureIn,VisibilityMPH,Wind Direction,Wind SpeedMPH,Gust SpeedMPH,PrecipitationIn,Events,Conditions,WindDirDegrees,DateUTC
12:53 AM,25.0,19.0,78,30.36,10.0,South,10.4,-,N/A,,Clear,170,2013-01-07 06:53:00
1:53 AM,27.0,19.9,75,30.35,10.0,South,10.4,-,N/A,,Clear,180,2013-01-07 07:53:00
2:53 AM,27.0,19.9,75,30.35,10.0,South,10.4,-,N/A,,Clear,180,2013-01-07 08:53:00
3:53 AM,27.0,19.0,72,30.33,10.0,South,9.2,-,N/A,,Clear,180,2013-01-07 09:53:00
4:53 AM,27.0,19.0,72,30.30,10.0,South,10.4,-,N/A,,Clear,170,2013-01-07 10:53:00
5:53 AM,27.0,19.0,72,30.30,10.0,South,9.2,-,N/A,,Clear,180,2013-01-07 11:53:00
6:53 AM,27.0,18.0,69,30.32,10.0,South,6.9,-,N/A,,Clear,190,2013-01-07 12:53:00
7:53 AM,27.0,19.0,72,30.32,10.0,South,9.2,-,N/A,,Clear,180,2013-01-07 13:53:00
8:53 AM,33.1,21.9,64,30.31,10.0,South,12.7,-,N/A,,Clear,190,2013-01-07 14:53:00
9:53 AM,37.9,23.0,55,30.31,10.0,South,12.7,-,N/A,,Clear,190,2013-01-07 15:53:00
10:53 AM,42.1,24.1,49,30.30,10.0,SSW,11.5,19.6,N/A,,Clear,200,2013-01-07 16:53:00
11:53 AM,44.1,25.0,47,30.25,10.0,SW,17.3,-,N/A,,Clear,220,2013-01-07 17:53:00
1:53 PM,46.9,25.0,42,30.18,10.0,SSW,17.3,25.3,N/A,,Clear,200,2013-01-07 19:53:00
2:53 PM,50.0,26.1,39,30.16,10.0,SSW,13.8,19.6,N/A,,Clear,200,2013-01-07 20:53:00
3:53 PM,50.0,26.1,39,30.16,10.0,SSW,8.1,-,N/A,,Clear,210,2013-01-07 21:53:00
4:53 PM,46.0,24.1,42,30.14,10.0,South,11.5,-,N/A,,Clear,180,2013-01-07 22:53:00
5:53 PM,43.0,24.1,47,30.15,10.0,South,9.2,-,N/A,,Clear,190,2013-01-07 23:53:00
6:53 PM,39.0,24.1,55,30.14,10.0,South,9.2,-,N/A,,Clear,180,2013-01-08 00:53:00
7:53 PM,37.9,26.1,62,30.13,10.0,South,10.4,-,N/A,,Clear,180,2013-01-08 01:53:00
8:53 PM,39.9,26.1,58,30.12,10.0,South,12.7,-,N/A,,Clear,190,2013-01-08 02:53:00
9:53 PM,41.0,25.0,53,30.12,10.0,South,15.0,-,N/A,,Clear,190,2013-01-08 03:53:00
10:53 PM,39.9,25.0,55,30.11,10.0,South,16.1,23.0,N/A,,Clear,190,2013-01-08 04:53:00
11:53 PM,39.0,25.0,57,30.11,10.0,South,11.5,-,N/A,,Clear,190,2013-01-08 05:53:00